TimeMDT,TemperatureF,Dew PointF,Humidity,Sea Level PressureIn,VisibilityMPH,Wind Direction,Wind SpeedMPH,Gust SpeedMPH,PrecipitationIn,Events,Conditions,WindDirDegrees,DateUTC
12:52 AM,41.0,36.0,82,30.17,10.0,WNW,4.6,-,N/A,,Clear,290,2013-09-20 06:52:00
1:52 AM,37.9,35.1,89,30.17,10.0,Calm,Calm,-,N/A,,Clear,0,2013-09-20 07:52:00
2:52 AM,36.0,33.1,89,30.17,10.0,Calm,Calm,-,N/A,,Clear,0,2013-09-20 08:52:00
3:52 AM,34.0,32.0,92,30.18,10.0,Calm,Calm,-,N/A,,Clear,0,2013-09-20 09:52:00
4:52 AM,36.0,33.1,89,30.17,10.0,WNW,4.6,-,N/A,,Clear,300,2013-09-20 10:52:00
5:52 AM,39.0,34.0,82,30.16,10.0,WNW,5.8,-,N/A,,Clear,300,2013-09-20 11:52:00
6:52 AM,37.9,34.0,86,30.17,10.0,WNW,4.6,-,N/A,,Clear,300,2013-09-20 12:52:00
7:52 AM,48.0,37.9,68,30.15,10.0,WNW,3.5,-,N/A,,Clear,290,2013-09-20 13:52:00
8:52 AM,55.0,37.9,53,30.14,10.0,West,3.5,-,N/A,,Clear,280,2013-09-20 14:52:00
9:52 AM,61.0,37.0,41,30.13,10.0,Calm,Calm,-,N/A,,Clear,0,2013-09-20 15:52:00
10:52 AM,64.0,37.0,37,30.12,10.0,North,8.1,-,N/A,,Clear,10,2013-09-20 16:52:00
11:52 AM,64.9,37.0,36,30.10,10.0,South,3.5,-,N/A,,Clear,170,2013-09-20 17:52:00
12:52 PM,68.0,37.0,32,30.07,10.0,ENE,5.8,-,N/A,,Clear,60,2013-09-20 18:52:00
1:52 PM,70.0,36.0,29,30.04,10.0,Variable,3.5,-,N/A,,Clear,0,2013-09-20 19:52:00
2:52 PM,72.0,36.0,27,30.01,10.0,SSE,8.1,-,N/A,,Clear,160,2013-09-20 20:52:00
3:52 PM,72.0,35.1,26,30.00,10.0,ESE,5.8,-,N/A,,Clear,110,2013-09-20 21:52:00
4:52 PM,72.0,35.1,26,29.98,10.0,ESE,4.6,-,N/A,,Clear,110,2013-09-20 22:52:00
5:52 PM,70.0,35.1,28,29.97,10.0,SSE,8.1,-,N/A,,Clear,150,2013-09-20 23:52:00
6:52 PM,63.0,35.1,35,29.98,10.0,ESE,8.1,-,N/A,,Clear,110,2013-09-21 00:52:00
7:52 PM,55.9,35.1,45,29.99,10.0,East,6.9,-,N/A,,Clear,80,2013-09-21 01:52:00
8:52 PM,53.1,34.0,48,29.98,10.0,Calm,Calm,-,N/A,,Clear,0,2013-09-21 02:52:00
9:52 PM,48.0,34.0,58,29.98,10.0,Calm,Calm,-,N/A,,Clear,0,2013-09-21 03:52:00
10:52 PM,45.0,33.1,63,29.98,10.0,Calm,Calm,-,N/A,,Clear,0,2013-09-21 04:52:00
11:52 PM,48.0,33.1,56,29.96,10.0,South,4.6,-,N/A,,Clear,170,2013-09-21 05:52:00